EA5JSM-13 Weather Reports


time (UTC)temp
C
wind
direction
speed
KPH
gust
KPH
rain 1hr
cm
rain 24hr
cm
rain mn
cm
humidity
%
barometer
mb
20260906160201 28 0.0 0.0 0.00 0.00 0.00 66 1020.7
20260906154124 28 0.0 0.0 0.00 0.00 0.00 67 1020.7
20260906153106 28 0.0 0.0 0.00 0.00 0.00 66 1020.8
20260906152047 28 0.0 0.0 0.00 0.00 0.00 65 1020.9
20260906150016 28 0.0 0.0 0.00 0.00 0.00 64 1021.1
20260906150010 28 0.0 0.0 0.00 0.00 0.00 64 1021.1
20260906144952 28 0.0 0.0 0.00 0.00 0.00 64 1021.2
20260906143938 29 0.0 0.0 0.00 0.00 0.00 63 1021.2
20260906143933 29 0.0 0.0 0.00 0.00 0.00 63 1021.2
20260906142915 28 0.0 0.0 0.00 0.00 0.00 65 1021.2
20260906141856 28 0.0 0.0 0.00 0.00 0.00 63 1021.2
20260906140838 28 0.0 0.0 0.00 0.00 0.00 63 1021.3
20260906135819 28 0.0 0.0 0.00 0.00 0.00 64 1021.4
20260906132729 28 0.0 0.0 0.00 0.00 0.00 63 1021.5
20260906132723 28 0.0 0.0 0.00 0.00 0.00 63 1021.5
20260906131705 28 0.0 0.0 0.00 0.00 0.00 62 1021.5
20260906124615 28 0.0 0.0 0.00 0.00 0.00 62 1021.6
20260906124609 28 0.0 0.0 0.00 0.00 0.00 62 1021.6
20260906122532 28 0.0 0.0 0.00 0.00 0.00 61 1021.9
20260906121514 28 0.0 0.0 0.00 0.00 0.00 61 1021.8
20260906120455 28 0.0 0.0 0.00 0.00 0.00 61 1021.9
20260906115437 28 0.0 0.0 0.00 0.00 0.00 61 1021.9
20260906114418 28 0.0 0.0 0.00 0.00 0.00 62 1021.9
20260906113400 28 0.0 0.0 0.00 0.00 0.00 60 1021.9
20260906112341 28 0.0 0.0 0.00 0.00 0.00 63 1021.9
20260906111328 28 0.0 0.0 0.00 0.00 0.00 65 1021.9
20260906111323 28 0.0 0.0 0.00 0.00 0.00 65 1021.9
20260906110304 28 0.0 0.0 0.00 0.00 0.00 63 1021.9
20260906105246 28 0.0 0.0 0.00 0.00 0.00 58 1021.8
20260906104227 28 0.0 0.0 0.00 0.00 0.00 59 1021.9
20260906103209 28 0.0 0.0 0.00 0.00 0.00 59 1021.9
20260906102150 28 0.0 0.0 0.00 0.00 0.00 57 1022.0
20260906101132 28 0.0 0.0 0.00 0.00 0.00 55 1022.0
20260906100118 29 0.0 0.0 0.00 0.00 0.00 55 1022.0
20260906100113 29 0.0 0.0 0.00 0.00 0.00 55 1022.0
20260906095054 29 0.0 0.0 0.00 0.00 0.00 56 1021.9
20260906094036 28 0.0 0.0 0.00 0.00 0.00 58 1021.9
20260906093017 28 0.0 0.0 0.00 0.00 0.00 58 1021.8
20260906092004 28 0.0 0.0 0.00 0.00 0.00 58 1021.8
20260906091959 28 0.0 0.0 0.00 0.00 0.00 58 1021.8